EW1931 Weather Reports


time (UTC)temp
F
wind
direction
speed
knots
gust
knots
rain 1hr
in
rain 24hr
in
rain mn
in
humidity
%
barometer
mb
20260509064548 56 44 3.5 5.2 0.00 0.00 0.00 47 923.6
20260509063046 56 5 4.3 7.0 0.00 0.00 0.00 46 923.4
20260509061527 57 328 4.3 7.8 0.00 0.00 0.00 44 923.5
20260509060027 57 317 6.1 10.4 0.00 0.00 0.00 42 923.4
20260509054502 58 331 8.7 12.2 0.00 0.00 0.00 40 923.4
20260509053008 58 306 8.7 14.8 0.00 0.00 0.00 37 923.2
20260509051555 58 311 7.8 13.0 0.00 0.00 0.00 35 923.0
20260509050044 59 331 9.6 11.3 0.00 0.00 0.00 34 922.7
20260509044526 59 342 7.8 11.3 0.00 0.00 0.00 33 922.5
20260509043039 59 349 6.1 8.7 0.00 0.00 0.00 33 922.3
20260509041508 60 346 5.2 7.8 0.00 0.00 0.00 31 922.2
20260509040007 60 351 7.0 9.6 0.00 0.00 0.00 30 922.2
20260509034606 61 348 6.1 11.3 0.00 0.00 0.00 29 922.0
20260509033049 61 360 7.0 9.6 0.00 0.00 0.00 30 921.8
20260509031549 62 355 6.1 7.8 0.00 0.00 0.00 29 921.5
20260509030037 63 355 5.2 7.8 0.00 0.00 0.00 28 921.2
20260509024530 64 355 7.0 10.4 0.00 0.00 0.00 27 921.1
20260509023023 66 360 9.6 14.8 0.00 0.00 0.00 26 921.0
20260509021522 67 9 8.7 13.0 0.00 0.00 0.00 25 920.9
20260509020017 68 355 8.7 14.8 0.00 0.00 0.00 25 920.9
20260509014517 69 360 11.3 16.5 0.00 0.00 0.00 25 920.8
20260509013035 70 355 14.8 21.7 0.00 0.00 0.00 25 920.7
20260509011515 71 328 14.8 20.9 0.00 0.00 0.00 24 920.8
20260509010023 72 323 14.8 20.9 0.00 0.00 0.00 22 920.7
20260509004533 72 310 13.0 18.2 0.00 0.00 0.00 20 920.8
20260509003100 72 338 15.6 20.9 0.00 0.00 0.00 20 920.7
20260509001557 73 315 13.9 21.7 0.00 0.00 0.00 19 920.8
20260509001509 73 305 13.9 21.7 0.00 0.00 0.00 19 920.8
20260509000039 74 314 14.8 22.6 0.00 0.00 0.00 18 920.7
20260508234538 74 327 13.0 21.7 0.00 0.00 0.00 17 920.7
20260508233021 75 309 16.5 23.5 0.00 0.00 0.00 17 920.5
20260508231520 75 317 16.5 23.5 0.00 0.00 0.00 15 920.6
20260508230023 76 323 14.8 26.9 0.00 0.00 0.00 17 920.5
20260508224501 76 324 14.8 22.6 0.00 0.00 0.00 17 920.5
20260508223051 75 300 18.2 26.1 0.00 0.00 0.00 18 920.4
20260508221544 76 305 16.5 26.1 0.00 0.00 0.00 16 920.4
20260508220024 76 278 11.3 25.2 0.00 0.00 0.00 17 920.4
20260508214524 75 324 13.0 27.8 0.00 0.00 0.00 16 920.5
20260508213005 76 338 16.5 26.9 0.00 0.00 0.00 16 920.5
20260508211509 76 302 16.5 26.1 0.00 0.00 0.00 18 920.6
20260508204542 74 250 12.2 19.1 0.00 0.00 0.00 20 920.8
20260508203025 74 330 12.2 19.1 0.00 0.00 0.00 22 920.9
20260508201522 74 287 16.5 24.3 0.00 0.00 0.00 23 920.9
20260508200002 73 198 6.1 18.2 0.00 0.00 0.00 27 921.1
20260508194600 74 286 8.7 19.1 0.00 0.00 0.00 27 921.3
20260508193045 72 298 10.4 19.1 0.00 0.00 0.00 29 921.4
20260508191538 73 302 9.6 20.9 0.00 0.00 0.00 29 921.6
20260508190017 72 243 7.8 19.1 0.00 0.00 0.00 31 921.9
20260508184523 72 229 8.7 18.2 0.00 0.00 0.00 32 922.0
20260508183055 71 236 7.8 20.9 0.00 0.00 0.00 33 922.2
20260508181605 70 237 11.3 15.6 0.00 0.00 0.00 34 922.4
20260508180033 70 215 10.4 14.8 0.00 0.00 0.00 36 922.5
20260508174530 69 235 6.1 14.8 0.00 0.00 0.00 38 922.7
20260508173007 68 246 7.8 16.5 0.00 0.00 0.00 40 922.8
20260508171504 67 232 7.0 15.6 0.00 0.00 0.00 43 923.1
20260508170044 66 240 7.8 14.8 0.00 0.00 0.00 44 923.3
20260508164555 65 228 8.7 13.9 0.00 0.00 0.00 47 923.3
20260508163021 64 215 9.6 13.9 0.00 0.00 0.00 48 923.5
20260508161517 63 219 8.7 13.9 0.00 0.00 0.00 51 923.5
20260508160056 61 207 9.6 13.9 0.00 0.00 0.00 53 923.7
20260508154554 60 207 8.7 12.2 0.00 0.00 0.00 55 923.8
20260508153033 58 202 7.8 13.0 0.00 0.00 0.00 59 924.0
20260508151530 57 218 8.7 12.2 0.00 0.00 0.00 63 924.1
20260508150011 55 225 7.8 11.3 0.00 0.00 0.00 66 924.2
20260508144503 54 236 9.6 12.2 0.00 0.00 0.00 68 924.5
20260508143045 52 237 7.8 10.4 0.00 0.00 0.00 69 924.6
20260508141640 51 240 9.6 12.2 0.00 0.00 0.00 72 924.7
20260508140019 49 240 9.6 12.2 0.00 0.00 0.00 74 924.8
20260508134521 47 244 9.6 11.3 0.00 0.00 0.00 74 924.8
20260508133115 45 231 5.2 8.7 0.00 0.00 0.00 75 924.8
20260508131549 44 234 6.1 7.8 0.00 0.00 0.00 74 924.8
20260508130030 43 228 1.7 5.2 0.00 0.00 0.00 76 924.7
20260508124530 41 230 6.1 7.8 0.00 0.00 0.00 78 924.9
20260508123009 40 229 1.7 3.5 0.00 0.00 0.00 73 924.8
20260508121508 40 210 2.6 7.8 0.00 0.00 0.00 73 924.8
20260508120052 40 316 7.8 10.4 0.00 0.00 0.00 71 924.6
20260508114548 40 327 4.3 7.8 0.00 0.00 0.00 69 924.5
20260508113031 41 322 7.0 11.3 0.00 0.00 0.00 68 924.5
20260508111530 41 317 7.8 11.3 0.00 0.00 0.00 69 924.5
20260508110025 40 303 7.0 8.7 0.00 0.00 0.00 69 924.6
20260508104509 40 308 7.0 9.6 0.00 0.00 0.00 66 924.6
20260508103057 41 296 6.1 8.7 0.00 0.00 0.00 65 924.5
20260508101548 43 286 5.2 7.8 0.00 0.00 0.00 62 924.5
20260508100029 43 323 4.3 7.8 0.00 0.00 0.00 63 924.7
20260508094524 42 215 4.3 10.4 0.00 0.00 0.00 70 924.7
20260508093003 44 308 7.0 8.7 0.00 0.00 0.00 66 924.6
20260508091501 44 290 6.1 9.6 0.00 0.00 0.00 67 924.6
20260508090059 46 308 4.3 7.0 0.00 0.00 0.00 64 924.5
20260508084542 47 313 6.1 8.7 0.00 0.00 0.00 63 924.6
20260508083027 49 290 5.2 8.7 0.00 0.00 0.00 60 924.6
20260508081527 51 297 8.7 14.8 0.00 0.00 0.00 58 924.7
20260508080011 49 301 8.7 13.9 0.00 0.00 0.00 64 924.7
20260508074515 50 283 4.3 7.8 0.00 0.00 0.00 63 924.6
20260508073101 50 232 8.7 12.2 0.00 0.00 0.00 65 924.7
20260508071555 49 283 5.2 7.8 0.00 0.00 0.00 67 924.6
20260508070030 48 244 5.2 6.1 0.00 0.00 0.00 66 924.5